Regional Weather Roundup
Issued by NWS Charleston, SC

Current Version | Previous Version | Graphics & Text | Print | Product List | Glossary On
Versions: 1 2 3 4 5 6 7 8 9 10 11 12 13 14 15 16 17 18 19 20 21 22 23 24 25 26 27 28 29 30 31 32 33 34 35 36 37 38 39 40 41 42 43 44 45 46 47 48 49 50
000
ASUS42 KCHS 050927
RWRCHS

REGIONAL WEATHER ROUNDUP
NATIONAL WEATHER SERVICE CHARLESTON SC
500 AM EDT SUN JUL 05 2015

NOTE: "FAIR" INDICATES FEW OR NO CLOUDS BELOW 12,000 FEET WITH NO
SIGNIFICANT WEATHER AND/OR OBSTRUCTIONS TO VISIBILITY.

NOT ALL STATIONS ARE QUALITY CONTROLLED BY THE NATIONAL
WEATHER SERVICE. USE DATA WITH CAUTION...ESPECIALLY
DEWPOINT OBSERVATIONS.

SCZ027-030-031-034>040-042>050-051000-
...SOUTHEAST SOUTH CAROLINA...

CITY           SKY/WX    TMP DP  RH WIND       PRES   REMARKS
N CHARLESTON   MOCLDY    74  71  91 CALM      30.10R
WATERFRONT PAR   N/A     76  74  93 VRB2      30.07S
MOUNT PLEASANT FAIR      73  72  94 CALM      30.11R FOG
JOHNS ISLAND   FAIR      75  73  94 S5        30.11R
PINOPOLIS      NOT AVBL
MONCKS CORNER  FAIR      72  70  94 CALM      30.10S
SUMMERVILLE    FAIR      72  72 100 CALM      30.11R
BEAUFORT MCAS  MOCLDY    74  70  87 W3        30.10S
BEAUFORT ARPT  FAIR      73  72  94 SW7       30.11R
HILTON HEAD IS MOCLDY    73  73 100 S5        30.12R
WALTERBORO     PTSUNNY   70  68  94 SW6       30.12R
ALLENDALE      FAIR      70  70 100 CALM      30.11R

...SOUTHERN MIDLANDS AND PEE DEE...

CITY           SKY/WX    TMP DP  RH WIND       PRES   REMARKS
GEORGETOWN     NOT AVBL
KINGSTREE      NOT AVBL
ORANGEBURG     PTCLDY    70  68  93 SW3       30.10R
BARNWELL       FAIR      72  70  94 CALM      30.12R
AIKEN          NOT AVBL
MANNING        FAIR      72  68  88 CALM      30.10S
COLUMBIA       MOCLDY    73  68  84 SW3       30.09R
SUMTER         CLOUDY    72  68  89 SW3       30.07
FLORENCE       MOCLDY    73  68  84 S6        30.09R
MYRTLE BEACH   MOCLDY    75  66  73 W6        30.13R
N MYRTLE BEACH MOCLDY    75  67  76 W3        30.10R

$$

GAZ063-065-086>088-099>101-113>116-118-119-134>141-150-051000-
...SOUTHEAST GEORGIA...

CITY           SKY/WX    TMP DP  RH WIND       PRES   REMARKS
SAVANNAH ARPT  PTCLDY    72  69  90 W5        30.12R
HUNTER AAF     PTCLDY    72  72 100 W3        30.09R
FORT STEWART   CLEAR     71  69  92 SW5       30.10R
STATESBORO     NOT AVBL
SYLVANIA       MOSUNNY   72  72 100 CALM      30.12R
CLAXTON        FAIR      70  70 100 CALM      30.12R

...CSRA...CENTRAL AND FAR SOUTHEAST GEORGIA...

CITY           SKY/WX    TMP DP  RH WIND       PRES   REMARKS
THOMSON        CLOUDY    74  74  99 CALM      30.14R
AUGUSTA-BUSH   CLOUDY    72  70  93 CALM      30.09R
AUGUSTA-DANIEL LGT RAIN  73  69  87 S7        30.10R
SWAINSBORO     FAIR     N/A N/A N/A CALM      30.12R
VIDALIA        PTCLDY    72  70  94 SW6       30.12S
EASTMAN        FAIR      69  69 100 CALM      30.13S
HAZLEHURST     FAIR      72  72 100 CALM      30.11S
ALMA           CLEAR     70  69  97 CALM      30.12R
WAYCROSS       CLEAR     73  73  99 CALM      30.12R
JESUP          FAIR      72  72 100 CALM      30.13R
BAXLEY         FAIR      70  70 100 CALM      30.12S
BRUNSWICK      PTCLDY    70  70 100 CALM      30.13R
SAINT SIMONS   PTCLDY    73  72  96 W3        30.12R

$$

SCZ027-028-034-036>038-045-046-048>050-GAZ119-141-051000-
...LAKE AND SUPPLEMENTAL COASTAL OBSERVATIONS...

STATION/POSITION TIME  TEMP    WIND        PRES    WAVE   SWELL
                       AIR SEA DIR/SP/G            HT/PER HT/PER/DIR
                 (UTC) (F)     (DEG/KT/KT) (MB)    (FT/S) (FT/S/D)
UPR LAKE MARION  NOT AVBL
WINYAH BAY       0845   75     270/  4     1018.0S
LAKE MURRAY      0800   76     220/  7/  9 1017.6S
ACE BASIN NERRS  NOT AVBL
FORT PULASKI     0900   75 84  200/  5/  6 1020.1R
SAPELO ISLAND    0900   76     230/  5     1020.0R

$$

ANZ835-935-AMZ111-154-330-350-352-354-370-450-454-472-051000-
...C-MAN AND BUOY OBSERVATIONS...

STATION/POSITION TIME  TEMP    WIND        PRES    WAVE   SWELL
                       AIR SEA DIR/SP/G            HT/PER HT/PER/DIR
                 (UTC) (F)     (DEG/KT/KT) (MB)    (FT/S) (FT/S/D)
BUOY 41004       0850   81 81  220/ 16/ 17 1018.7R   3/ 9   2/ 9
BUOY 41008       0850   79 79  200/ 10/ 12 1019.9R   2/ 8   2/110/ 8
FOLLY BEACH CMAN 0900   78     250/  3/  4 1019.4R
CAPERS NEARSHORE 0808   80     230/ 16/ 19 1019.4R
FRIPP NEARSHORE  0800   81     270/ 12/ 16 1018.9S


STATION/POSITION TIME  TEMP    WIND        PRES    WAVE   SWELL
                       AIR SEA DIR/SP/G            HT/PER HT/PER/DIR
                 (UTC) (F)     (DEG/KT/KT) (MB)    (FT/S) (FT/S/D)
5E ST. MARYS GA  0821      77                N/A     2/ 9
FRYING PAN BUOY  0850   80 78  210/ 10/ 10 1019.8R   4/ 6   3/160/ 6
BUOY 41025       0850   80 81  230/ 19/ 21 1018.2R   5/ 6   2/140/ 8
CAPE LOOKOUT NC  0900   79     230/ 10/ 14 1018.7R
BUOY 41002       0850   81 80  250/  8/ 10 1021.6R   5/ 6   5/250/ 6
BUOY 41010       0820   83 84  160/ 12/ 14 1020.6F
ST AUGUSTINE FL  0900   73 72  220/  2/  3 1021.0R


$$



USA.gov is the U.S. government's official web portal to all federal, state and local government web resources and services.